Weather History for Penticton, BC

Change the Weather History Date:

Wednesday, October 23, 2013

  Actual Average Record
Temperature  
Mean Temperature 44 °F -  
Max Temperature 50 °F 47 °F 66 °F (2007)
Min Temperature 38 °F 32 °F 30 °F (1998)
Degree Days  
Heating Degree Days 21    
Moisture  
Dew Point 43 °F    
Average Humidity 85    
Maximum Humidity 93    
Minimum Humidity 76    
Precipitation  
Precipitation 0.00 in 0.03 in - ()
Sea Level Pressure  
Sea Level Pressure 30.23 in    
Wind  
Wind Speed 5 mph ()    
Max Wind Speed 10 mph    
Max Gust Speed -    
Visibility 11.3 miles    
Events      
Averages and records for this station are not official NWS values.
T = Trace of Precipitation, MM = Missing Value Source: Averaged Metar Reports

Daily Weather History Graph

Daily Weather History Graph

Search for Another Location

Airport:

Trip Planner

Search our weather history database for the weather conditions in past years. The results will help you decide how hot, cold, wet, or windy it might be!

Date:

Astronomy

Oct. 23, 2013 Rise Set
Actual Time 7:32 AM PDT 5:51 PM PDT
Civil Twilight 7:00 AM PDT 6:24 PM PDT
Nautical Twilight 6:22 AM PDT 7:01 PM PDT
Astronomical Twilight 5:45 AM PDT 7:38 PM PDT
Moon 9:13 PM PDT (10/23) 12:07 PM PDT (10/23)
Length of Visible Light 11h 24m
Length of Day
10h 18m
Waning Gibbous, 78% of the Moon is Illuminated
Oct 23
Waning Gibbous
Oct 26
Last Quarter
Nov 3
New
Nov 9
First Quarter
Nov 17
Full

Hourly Weather History & Observations

Time (PDT) Temp. Windchill Dew Point Humidity Pressure Visibility Wind Dir Wind Speed Gust Speed Precip Events Conditions
12:00 AM 44.6 °F 42.2 °F 42.8 °F 93% 30.22 in 10.0 mi NE 4.6 mph - N/A   Overcast
1:00 AM 44.6 °F - 42.8 °F 93% 30.22 in 8.0 mi North - - N/A   Overcast
2:00 AM 44.6 °F 42.2 °F 41.0 °F 87% 30.22 in 8.0 mi NNE 4.6 mph - N/A   Overcast
3:00 AM 44.6 °F 40.7 °F 41.0 °F 87% 30.22 in 8.0 mi NNW 6.9 mph - N/A   Overcast
4:00 AM 44.6 °F 41.4 °F 41.0 °F 87% 30.22 in 8.0 mi NNW 5.8 mph - N/A   Overcast
5:00 AM 44 °F - 41 °F 83% 30.23 in 7 mi NNW 6.9 mph - -   Overcast
5:00 AM 44.6 °F 40.2 °F 41.0 °F 87% 30.23 in 8.0 mi NNW 8.1 mph - N/A   Overcast
6:00 AM 42.8 °F 39.3 °F 39.2 °F 87% 30.23 in 10.0 mi NNW 5.8 mph - N/A   Overcast
7:00 AM 44.6 °F 41.4 °F 41.0 °F 87% 30.25 in 8.0 mi North 5.8 mph - N/A   Overcast
8:00 AM 44.6 °F 40.7 °F 41.0 °F 87% 30.26 in 10.0 mi NNW 6.9 mph - N/A   Overcast
8:56 AM 46.4 °F 42.9 °F 42.8 °F 87% 30.28 in 8.0 mi NNW 6.9 mph - N/A   Overcast
9:00 AM 46.4 °F 42.9 °F 42.8 °F 87% 30.27 in 8.0 mi NNW 6.9 mph - N/A   Overcast
9:21 AM 44.6 °F 43.1 °F 41.0 °F 87% 30.27 in 10.0 mi North 3.5 mph - N/A   Overcast
10:00 AM 46.4 °F - 41.0 °F 81% 30.26 in 15.0 mi NE 2.3 mph - N/A   Overcast
11:00 AM 47 °F - 42 °F 77% 30.25 in 15 mi Calm Calm - -   Overcast
11:00 AM 48.2 °F - 42.8 °F 82% 30.25 in 15.0 mi Calm Calm - N/A   Overcast
12:00 PM 48.2 °F - 42.8 °F 82% 30.25 in 15.0 mi NNW 3.5 mph - N/A   Overcast
1:00 PM 48.2 °F - 42.8 °F 82% 30.25 in 15.0 mi NNE 5.8 mph - N/A   Overcast
2:00 PM 50.0 °F - 42.8 °F 76% 30.22 in 15.0 mi North 9.2 mph - N/A   Overcast
3:00 PM 50.0 °F - 42.8 °F 76% 30.21 in 15.0 mi North 10.4 mph - N/A   Mostly Cloudy
4:00 PM 50.0 °F - 44.6 °F 82% 30.20 in 15.0 mi North 9.2 mph - N/A   Mostly Cloudy
5:00 PM 48 °F - 44 °F 81% 30.19 in 12 mi NNE 6.9 mph - -   Mostly Cloudy
5:00 PM 48.2 °F - 44.6 °F 87% 30.19 in 12.0 mi NNE 6.9 mph - N/A   Mostly Cloudy
6:00 PM 48.2 °F - 44.6 °F 87% 30.19 in 12.0 mi North 4.6 mph - N/A   Overcast
7:00 PM 48.2 °F - 44.6 °F 87% 30.20 in 12.0 mi NNW 6.9 mph - N/A   Overcast
8:00 PM 48.2 °F - 44.6 °F 87% 30.20 in 12.0 mi NNW 5.8 mph - N/A   Overcast
9:00 PM 46.4 °F 43.5 °F 44.6 °F 93% 30.20 in 12.0 mi NNW 5.8 mph - N/A   Overcast
10:00 PM 46.4 °F 43.5 °F 42.8 °F 87% 30.20 in 12.0 mi NNW 5.8 mph - N/A   Overcast
11:00 PM 46 °F - 43 °F 86% 30.21 in 12 mi NNW 4.6 mph - -   Overcast
11:00 PM 46.4 °F 44.3 °F 42.8 °F 87% 30.21 in 12.0 mi NNW 4.6 mph - N/A   Overcast